Back to catalog

FENGYUN 1C DEB

AliveSSO
NORAD 30411·DEBRIS·🇨🇳 China

Launched May 10, 1999 from Taiyuan Satellite Launch Center

Loading…

Next Passes (next 24 hours)

TLE

FreshSource: Space-Track

Epoch: Sep 14, 2026, 04:20 UTC

1 30411U 99025AEA 26257.18121086  .00001861  00000-0  10181-2 0  9992
2 30411  98.5692 159.4697 0124212  45.2542 315.8658 14.09231257998618

Track FENGYUN 1C DEB in real time with AllMySat

Download on the App Store